IRIDIUM 23 [P]

Last updated on March 28, 2018, 12:19 a.m. UTC

1 24906U 97043D   18086.87553626  .19764642 -20654-5  29789-3 0  9999
2 24906  86.3745 133.0244 0036215 207.4806 152.7376 16.44735229 79030

Satellite is not in orbit.